Chariton, IA

9:11 PM CDT on July 22, 2017 (GMT -0500)
Chariton Municipal

Weather History for KCNC - January, 2014

Change the Weather History Date:

Sunday, January 12, 2014

  Actual Average Record
Temperature  
Mean Temperature 38 °F -  
Max Temperature 48 °F 30 °F 58 °F (1960)
Min Temperature 28 °F 10 °F -22 °F (1974)
Degree Days  
Heating Degree Days 27    
Moisture  
Dew Point 30 °F    
Average Humidity 69    
Maximum Humidity 93    
Minimum Humidity 53    
Precipitation  
Precipitation 0.00 in - - ()
Sea Level Pressure  
Sea Level Pressure 29.60 in    
Wind  
Wind Speed 13 mph (SSW)    
Max Wind Speed 24 mph    
Max Gust Speed 31 mph    
Visibility 10 miles    
Events      
Averages and records for this station are not official NWS values.
T = Trace of Precipitation, MM = Missing Value Source: NWS Daily Summary

Daily Weather History Graph

Daily Weather History Graph

Search for Another Location

Airport or City:

Trip Planner

Search our weather history database for the weather conditions in past years. The results will help you decide how hot, cold, wet, or windy it might be!

Date:

Astronomy

Jan. 12, 2014 Rise Set
Actual Time 7:37 AM CST 5:06 PM CST
Civil Twilight 7:06 AM CST 5:37 PM CST
Nautical Twilight 6:32 AM CST 6:11 PM CST
Astronomical Twilight 5:59 AM CST 6:44 PM CST
Moon 2:35 PM CST (1/12) 4:36 AM CST (1/12)
Length of Visible Light 10h 30m
Length of Day
9h 29m
Waxing Gibbous, 90% of the Moon is Illuminated
Jan 12
Waxing Gibbous
Jan 15
Full
Jan 23
Last Quarter
Jan 30
New
Feb 6
First Quarter

Hourly Weather History & Observations

Time (CST) Temp. Windchill Dew Point Humidity Pressure Visibility Wind Dir Wind Speed Gust Speed Precip Events Conditions
12:15 AM 28.4 °F 19.1 °F 26.6 °F 93% 29.81 in 10.0 mi SSW 10.4 mph - N/A   Clear
12:35 AM 28.4 °F 19.1 °F 26.6 °F 93% 29.79 in 10.0 mi South 10.4 mph - N/A   Clear
12:55 AM 28.4 °F 19.7 °F 26.6 °F 93% 29.78 in 10.0 mi South 9.2 mph - N/A   Clear
1:15 AM 30.2 °F 20.8 °F 26.6 °F 86% 29.77 in 10.0 mi South 11.5 mph - N/A   Clear
1:35 AM 30.2 °F 20.8 °F 26.6 °F 86% 29.77 in 10.0 mi SSW 11.5 mph - N/A   Clear
1:55 AM 30.2 °F 21.3 °F 26.6 °F 86% 29.76 in 10.0 mi South 10.4 mph - N/A   Clear
2:15 AM 30.2 °F 21.3 °F 26.6 °F 86% 29.75 in 10.0 mi South 10.4 mph - N/A   Clear
2:35 AM 30.2 °F 21.9 °F 26.6 °F 86% 29.75 in 10.0 mi South 9.2 mph - N/A   Partly Cloudy
2:55 AM 32.0 °F 23.0 °F 28.4 °F 87% 29.74 in 10.0 mi South 11.5 mph - N/A   Scattered Clouds
3:15 AM 32.0 °F 21.6 °F 26.6 °F 80% 29.73 in 10.0 mi South 15.0 mph - N/A   Partly Cloudy
3:35 AM 32.0 °F 22.5 °F 26.6 °F 80% 29.73 in 10.0 mi South 12.7 mph - N/A   Clear
3:55 AM 32.0 °F 21.6 °F 26.6 °F 80% 29.70 in 10.0 mi South 15.0 mph - N/A   Clear
4:15 AM 32.0 °F 22.1 °F 26.6 °F 80% 29.70 in 10.0 mi South 13.8 mph - N/A   Clear
4:35 AM 33.8 °F 24.3 °F 26.6 °F 75% 29.70 in 10.0 mi South 13.8 mph - N/A   Clear
4:55 AM 33.8 °F 23.2 °F 26.6 °F 75% 29.69 in 10.0 mi South 17.3 mph - N/A   Clear
5:15 AM 35.6 °F 24.8 °F 26.6 °F 70% 29.67 in 10.0 mi South 19.6 mph - N/A   Unknown
5:35 AM 37.4 °F 26.4 °F 28.4 °F 70% 29.65 in 10.0 mi South 23.0 mph - N/A   Unknown
5:55 AM 35.6 °F 24.8 °F 28.4 °F 75% 29.65 in 10.0 mi South 19.6 mph 26.5 mph N/A   Mostly Cloudy
6:15 AM 37.4 °F 26.6 °F 28.4 °F 70% 29.64 in 10.0 mi South 21.9 mph 27.6 mph N/A   Scattered Clouds
6:35 AM 37.4 °F 26.1 °F 28.4 °F 70% 29.63 in 10.0 mi South 24.2 mph 31.1 mph N/A   Clear
6:55 AM 37.4 °F 27.2 °F 28.4 °F 70% 29.63 in 10.0 mi South 19.6 mph 29.9 mph N/A   Unknown
7:15 AM 37.4 °F 26.1 °F 28.4 °F 70% 29.61 in 10.0 mi South 24.2 mph 29.9 mph N/A   Clear
7:35 AM 37.4 °F 26.1 °F 28.4 °F 70% 29.60 in 10.0 mi South 24.2 mph 29.9 mph N/A   Clear
7:55 AM 37.4 °F 26.9 °F 28.4 °F 70% 29.60 in 10.0 mi South 20.7 mph 26.5 mph N/A   Clear
8:15 AM 37.4 °F 26.4 °F 28.4 °F 70% 29.60 in 10.0 mi South 23.0 mph - N/A   Clear
8:35 AM 37.4 °F 26.4 °F 28.4 °F 70% 29.60 in 10.0 mi South 23.0 mph - N/A   Clear
8:55 AM 39.2 °F 29.0 °F 28.4 °F 65% 29.59 in 10.0 mi South 21.9 mph 28.8 mph N/A   Clear
9:15 AM 39.2 °F 30.2 °F 28.4 °F 65% 29.61 in 10.0 mi SSW 17.3 mph 27.6 mph N/A   Clear
9:35 AM 39.2 °F 29.8 °F 28.4 °F 65% 29.61 in 10.0 mi SSW 18.4 mph - N/A   Clear
9:55 AM 39.2 °F 30.2 °F 30.2 °F 70% 29.60 in 10.0 mi South 17.3 mph 24.2 mph N/A   Clear
10:15 AM 41.0 °F 31.9 °F 30.2 °F 65% 29.58 in 10.0 mi South 19.6 mph 25.3 mph N/A   Clear
10:35 AM 41.0 °F 32.2 °F 30.2 °F 65% 29.57 in 10.0 mi South 18.4 mph 26.5 mph N/A   Clear
10:55 AM 42.8 °F 35.4 °F 30.2 °F 61% 29.56 in 10.0 mi South 15.0 mph - N/A   Clear
11:15 AM 42.8 °F 35.1 °F 30.2 °F 61% 29.55 in 10.0 mi South 16.1 mph - N/A   Clear
11:35 AM 44.6 °F 37.2 °F 30.2 °F 57% 29.53 in 10.0 mi SSW 17.3 mph 27.6 mph N/A   Clear
11:55 AM 46.4 °F 39.0 °F 30.2 °F 53% 29.52 in 10.0 mi SSW 19.6 mph 27.6 mph N/A   Clear
12:15 PM 44.6 °F 36.6 °F 30.2 °F 57% 29.49 in 10.0 mi SSW 19.6 mph 26.5 mph N/A   Clear
12:35 PM 44.6 °F 36.9 °F 30.2 °F 57% 29.48 in 10.0 mi SSW 18.4 mph 25.3 mph N/A   Clear
12:55 PM 46.4 °F 39.5 °F 30.2 °F 53% 29.48 in 10.0 mi SSW 17.3 mph - N/A   Clear
1:15 PM 46.4 °F 39.8 °F 30.2 °F 53% 29.49 in 10.0 mi SSW 16.1 mph 21.9 mph N/A   Clear
1:35 PM 46.4 °F 39.8 °F 32.0 °F 57% 29.48 in 10.0 mi SSW 16.1 mph - N/A   Clear
1:55 PM 46.4 °F 40.7 °F 32.0 °F 57% 29.48 in 10.0 mi SSW 12.7 mph - N/A   Clear
2:15 PM 46.4 °F 41.5 °F 32.0 °F 57% 29.49 in 10.0 mi SSW 10.4 mph - N/A   Clear
2:35 PM 48.2 °F - 32.0 °F 54% 29.49 in 10.0 mi SW 9.2 mph - N/A   Clear
2:55 PM 48.2 °F - 32.0 °F 54% 29.49 in 10.0 mi SW 6.9 mph 12.7 mph N/A   Clear
3:15 PM 48.2 °F - 32.0 °F 54% 29.50 in - SSW 8.1 mph - N/A   Clear
3:35 PM 46.4 °F 43.5 °F 32.0 °F 57% 29.50 in 10.0 mi SW 5.8 mph - N/A   Clear
3:55 PM 48.2 °F - 32.0 °F 54% 29.51 in 10.0 mi WSW 5.8 mph - N/A   Clear
4:15 PM 48.2 °F - 32.0 °F 54% 29.51 in 10.0 mi SW 6.9 mph - N/A   Clear
4:35 PM 46.4 °F 42.9 °F 32.0 °F 57% 29.52 in 10.0 mi SW 6.9 mph - N/A   Clear
4:55 PM 44.6 °F 40.7 °F 32.0 °F 61% 29.53 in 10.0 mi WSW 6.9 mph - N/A   Clear
5:15 PM 44.6 °F 42.2 °F 32.0 °F 61% 29.53 in 10.0 mi WSW 4.6 mph - N/A   Clear
5:35 PM 44.6 °F 40.7 °F 32.0 °F 61% 29.54 in 10.0 mi WSW 6.9 mph - N/A   Clear
5:55 PM 44.6 °F 40.7 °F 32.0 °F 61% 29.55 in 10.0 mi WSW 6.9 mph - N/A   Mostly Cloudy
6:15 PM 42.8 °F 39.3 °F 30.2 °F 61% 29.56 in 10.0 mi WSW 5.8 mph - N/A   Overcast
6:35 PM 42.8 °F 39.3 °F 30.2 °F 61% 29.57 in 10.0 mi WSW 5.8 mph - N/A   Mostly Cloudy
6:55 PM 41.0 °F 38.0 °F 30.2 °F 65% 29.57 in 10.0 mi WSW 4.6 mph - N/A   Unknown
7:15 PM 42.8 °F 40.1 °F 30.2 °F 61% 29.57 in 10.0 mi WSW 4.6 mph - N/A   Partly Cloudy
7:35 PM 41.0 °F 37.1 °F 30.2 °F 65% 29.57 in 10.0 mi WSW 5.8 mph - N/A   Partly Cloudy
7:55 PM 41.0 °F 36.4 °F 30.2 °F 65% 29.57 in 10.0 mi West 6.9 mph - N/A   Mostly Cloudy
8:15 PM 39.2 °F 35.0 °F 30.2 °F 70% 29.57 in 10.0 mi West 5.8 mph - N/A   Overcast
8:35 PM 41.0 °F 38.0 °F 30.2 °F 65% 29.56 in 10.0 mi West 4.6 mph - N/A   Mostly Cloudy
8:55 PM 39.2 °F 37.0 °F 30.2 °F 70% 29.57 in 10.0 mi WSW 3.5 mph - N/A   Mostly Cloudy
9:15 PM 39.2 °F 34.2 °F 30.2 °F 70% 29.57 in 10.0 mi WNW 6.9 mph - N/A   Mostly Cloudy
9:35 PM 37.4 °F 32.8 °F 30.2 °F 75% 29.57 in 10.0 mi West 5.8 mph - N/A   Overcast
9:55 PM 33.8 °F 29.6 °F 30.2 °F 87% 29.57 in 10.0 mi SSW 4.6 mph - N/A   Overcast
10:15 PM 35.6 °F 30.7 °F 30.2 °F 81% 29.58 in 10.0 mi WNW 5.8 mph - N/A   Unknown
10:35 PM 37.4 °F 33.8 °F 30.2 °F 75% 29.58 in 10.0 mi West 4.6 mph - N/A   Overcast
10:55 PM 37.4 °F - 32.0 °F 81% 29.59 in 10.0 mi Calm Calm - N/A   Overcast
11:15 PM 37.4 °F 33.8 °F 32.0 °F 81% 29.59 in 10.0 mi WNW 4.6 mph - N/A   Unknown
11:35 PM 37.4 °F 32.1 °F 32.0 °F 81% 29.60 in 10.0 mi West 6.9 mph - N/A   Unknown
11:55 PM 37.4 °F 32.1 °F 32.0 °F 81% 29.60 in 10.0 mi WNW 6.9 mph - N/A   Overcast